Intasat

operational
NORAD ID: 7531 Int'l Des: 1974-089 Owner: INTA Country: E
LEOCIRCULARRETROGRADESSO

About Intasat

Description loading...

Live Position

Loading 3D Globe...

Upcoming Passes

Altitude History

Altitude vs Time

uPlot chart will show altitude changes over time

Two-Line Element Set

1 07531U 74089C 26062.66502220 -.00000032 00000-0 92762-4 0 9999
2 07531 101.9998 73.9203 0011168 345.1254 130.0292 12.53527569347051
Epoch: Mar 3, 2026 • Age: 25 hours

Current Status

Altitude 1447.0 km
Velocity 7.14 km/s
Sub-Earth Point 29.21°N, 110.55°W
Type other

Large Constellations

Loading constellations...